20050427,000011,1069044,34.242518,-119.347092,4.6,15.154,33.395,41.298,1504.66,0.0,5.389,14.408,14.373, NaN,24.701,   NaN,13.73,1012.99,93.78,14.13,285.8,287.3,4.8,6.2,278.2,288.2,6.6,7.3,NaN, NaN,17.1,52.1,52.7,1114560012,1114560012,1,10.7,000011,000012,50.4,34.242475,-119.347173,11.04,NaN,NaN,15.158, NaN,NaN,NaN, NaN, NaN
20050427,000041,1069074,34.243487,-119.345550,4.6,15.094,33.438,41.289,1480.32,0.0,5.371,14.490,14.457, NaN,24.748,   NaN,13.69,1013.00,93.64,14.14,290.4,289.4,4.9,6.2,280.3,289.3,6.3,7.2,NaN, NaN,17.0,51.7,52.4,1114560042,1114560042,1,11.4,000042,000042,50.0,34.243410,-119.345687,10.76,NaN,NaN,15.098, NaN,NaN,NaN, NaN, NaN
20050427,000111,1069104,34.244413,-119.344083,4.5,15.100,33.422,41.276,1537.62,0.0,5.276,14.609,14.582, NaN,24.734,   NaN,13.68,1013.00,93.67,14.12,290.2,288.0,4.5,6.2,277.5,288.4,6.1,7.2,NaN, NaN,17.0,53.9,52.7,1114560072,1114560072,1,11.0,000072,000072,49.6,34.244335,-119.344225,10.81,NaN,NaN,15.104, NaN,NaN,NaN, NaN, NaN
20050427,000141,1069134,34.245347,-119.342597,4.6,15.107,33.400,41.259,1547.98,0.0,5.182,14.749,14.721, NaN,24.715,   NaN,13.71,1013.01,93.79,14.13,287.2,286.1,4.4,6.2,275.5,287.1,6.3,7.4,NaN, NaN,16.8,54.0,52.9,1114560102,1114560102,1,10.9,000102,000102,50.5,34.245272,-119.342738,11.06,NaN,NaN,15.111, NaN,NaN,NaN, NaN, NaN
20050427,000211,1069164,34.246268,-119.341118,4.5,15.131,33.363,41.241,1452.29,0.0,5.201,14.887,14.862, NaN,24.682,   NaN,13.75,1013.01,93.85,14.17,287.2,284.3,4.4,6.1,275.7,285.9,6.3,7.5,NaN, NaN,16.9,53.1,53.3,1114560132,1114560132,1,11.3,000132,000132,48.6,34.246187,-119.341258,10.72,NaN,NaN,15.135, NaN,NaN,NaN, NaN, NaN
20050427,000241,1069194,34.247195,-119.339643,4.6,15.180,33.309,41.227,1180.04,0.0,5.050,15.007,14.982, NaN,24.629,   NaN,13.79,1012.99,93.86,14.20,287.7,283.3,4.2,6.0,274.1,285.1,6.2,7.5,NaN, NaN,16.5,52.9,53.3,1114560162,1114560162,1,10.9,000162,000162,49.6,34.247115,-119.339783,11.07,NaN,NaN,15.184, NaN,NaN,NaN, NaN, NaN
20050427,000311,1069224,34.248128,-119.338168,4.5,15.249,33.241,41.216,1245.17,0.0,4.936,15.115,15.092, NaN,24.562,   NaN,13.76,1013.01,93.76,14.19,290.4,284.2,4.1,6.1,273.7,285.4,6.0,7.5,NaN, NaN,16.9,54.3,52.9,1114560192,1114560192,1,11.3,000192,000192,50.0,34.248048,-119.338303,10.83,NaN,NaN,15.253, NaN,NaN,NaN, NaN, NaN
20050427,000341,1069254,34.249053,-119.336685,4.6,15.315,33.183,41.214,1425.42,0.0,4.842,15.236,15.215, NaN,24.503,   NaN,13.80,1013.04,93.88,14.18,289.1,284.8,4.2,6.2,273.5,286.5,6.1,7.5,NaN, NaN,16.4,51.7,51.8,1114560222,1114560222,1,11.2,000222,000222,50.0,34.248970,-119.336822,10.88,NaN,NaN,15.319, NaN,NaN,NaN, NaN, NaN
20050427,000411,1069284,34.249983,-119.335195,4.5,15.436,33.091,41.226,1258.20,0.0,4.804,15.339,15.317, NaN,24.405,   NaN,13.79,1013.04,93.88,14.18,287.0,284.4,4.3,6.2,273.7,286.3,6.3,7.6,NaN, NaN,16.9,51.8,53.0,1114560252,1114560252,1,11.3,000252,000252,49.3,34.249895,-119.335328,10.84,NaN,NaN,15.440, NaN,NaN,NaN, NaN, NaN
20050427,000441,1069314,34.250907,-119.333718,4.6,15.583,32.990,41.251,1082.31,0.0,4.823,15.363,15.334, NaN,24.295,   NaN,13.81,1013.05,93.92,14.19,282.1,284.2,4.1,5.7,271.5,283.2,6.5,7.2,NaN, NaN,16.7,54.0,54.2,1114560282,1114560282,1,11.0,000282,000282,49.0,34.250818,-119.333855,10.83,NaN,NaN,15.587, NaN,NaN,NaN, NaN, NaN
20050427,000511,1069344,34.251827,-119.332258,4.5,15.693,32.938,41.296,1125.67,0.0,4.559,15.307,15.278, NaN,24.231,   NaN,13.86,1013.06,94.02,14.23,278.3,283.7,4.1,5.3,270.3,280.9,6.7,7.0,NaN, NaN,16.4,52.3,52.0,1114560312,1114560312,1,10.9,000312,000312,50.0,34.251737,-119.332395,10.73,NaN,NaN,15.697, NaN,NaN,NaN, NaN, NaN
20050427,000541,1069374,34.252743,-119.330785,4.6,15.769,32.929,41.357,1149.77,0.0,4.521,15.237,15.206, NaN,24.207,   NaN,13.89,1013.09,94.02,14.22,282.3,282.2,4.1,5.3,271.6,280.4,6.4,7.1,NaN, NaN,17.1,55.4,54.7,1114560342,1114560342,1,11.4,000342,000342,49.3,34.252650,-119.330917,10.64,NaN,NaN,15.773, NaN,NaN,NaN, NaN, NaN
20050427,000611,1069404,34.253623,-119.329277,4.4,15.909,32.876,41.428,1048.84,0.0,4.483,15.200,15.171, NaN,24.135,   NaN,13.91,1013.11,93.98,14.25,283.1,281.3,3.9,5.3,271.3,281.1,6.3,7.2,NaN, NaN,17.1,56.1,56.5,1114560372,1114560372,1,11.0,000372,000372,53.0,34.253535,-119.329417,10.97,NaN,NaN,15.913, NaN,NaN,NaN, NaN, NaN
20050427,000641,1069434,34.254472,-119.327765,4.5,15.926,32.937,41.513,907.85,0.0,4.540,15.189,15.159, NaN,24.178,   NaN,13.86,1013.11,93.89,14.23,270.9,278.7,2.9,5.2,261.9,280.4,6.3,7.3,NaN, NaN,17.4,56.5,56.5,1114560402,1114560402,1,11.1,000402,000402,51.8,34.254382,-119.327913,10.81,NaN,NaN,15.930, NaN,NaN,NaN, NaN, NaN
20050427,000712,1069465,34.255333,-119.326252,4.6,16.070,32.901,41.607,973.06,0.0,4.502,15.182,15.151, NaN,24.118,   NaN,13.93,1013.11,94.13,14.26,262.5,277.1,2.3,4.9,256.1,278.8,6.3,7.2,NaN, NaN,17.7,55.4,53.5,1114560432,1114560432,1,10.9,000432,000432,53.6,34.255243,-119.326400,10.83,NaN,NaN,16.074, NaN,NaN,NaN, NaN, NaN
20050427,000741,1069494,34.255990,-119.325170,4.4,16.043,33.006,41.700,1003.73,0.0,4.823,15.173,15.138, NaN,24.204,   NaN,13.87,1013.09,93.85,14.24,263.4,273.7,1.5,5.0,248.5,278.6,5.3,7.1,NaN, NaN,17.4,49.2,52.6,1114560462,1114560462,1,6.0,000462,000462,34.3,34.255865,-119.325297,7.04,NaN,NaN,16.047, NaN,NaN,NaN, NaN, NaN
20050427,000811,1069524,34.256487,-119.324770,4.5,16.013,33.106,41.786,1185.33,0.0,5.427,15.195,15.166, NaN,24.288,   NaN,13.80,1013.05,93.74,14.15,278.6,270.4,1.1,5.7,238.3,274.7,3.8,7.2,NaN, NaN,17.4,29.9,35.4,1114560492,1114560492,1,3.1,000492,000492,359.4,34.256315,-119.324817,3.55,NaN,NaN,16.017, NaN,NaN,NaN, NaN, NaN
20050427,000842,1069555,34.256790,-119.324697,4.4,15.967,33.207,41.857,1198.08,0.0,5.767,15.236,15.209, NaN,24.376,   NaN,13.83,1013.05,93.86,14.14,290.4,280.9,3.2,6.6,250.5,269.3,4.2,7.3,NaN, NaN,17.1,344.6,7.7,1114560522,1114560522,1,1.7,000522,000522,330.3,34.256618,-119.324663,1.61,NaN,NaN,15.971, NaN,NaN,NaN, NaN, NaN
20050427,000912,1069585,34.256978,-119.324742,4.5,15.950,33.265,41.905,1173.26,0.0,5.956,15.272,15.242, NaN,24.425,   NaN,13.96,1013.08,93.99,14.23,308.4,304.5,5.8,7.1,270.9,269.6,5.8,7.2,NaN, NaN,17.3,347.9,337.2,1114560552,1114560552,1,1.1,000552,000552,307.6,34.256828,-119.324655,1.09,NaN,NaN,15.954, NaN,NaN,NaN, NaN, NaN
20050427,000942,1069615,34.257085,-119.324810,4.5,15.948,33.294,41.936,1164.04,0.0,6.126,15.298,15.267, NaN,24.448,   NaN,13.92,1013.08,93.67,14.25,326.6,325.8,6.7,7.0,270.9,270.3,6.6,6.8,NaN, NaN,17.2,354.7,334.9,1114560582,1114560582,1,0.8,000582,000582,288.3,34.256962,-119.324682,0.63,NaN,NaN,15.952, NaN,NaN,NaN, NaN, NaN
20050427,001011,1069644,34.257132,-119.324883,4.5,15.951,33.305,41.952,1135.87,0.0,6.484,15.317,15.287, NaN,24.455,   NaN,13.89,1013.09,93.55,14.23,343.5,343.0,7.5,7.2,271.5,270.6,7.4,7.2,NaN, NaN,17.4,354.7,316.4,1114560612,1114560612,1,0.4,000612,000612,274.8,34.257050,-119.324733,0.37,NaN,NaN,15.955, NaN,NaN,NaN, NaN, NaN
20050427,001041,1069674,34.257138,-119.324922,4.5,15.965,33.298,41.956,1117.24,0.0,6.805,15.332,15.303, NaN,24.446,   NaN,13.91,1013.09,93.68,14.20,359.7,0.1,7.8,7.7,273.7,274.1,7.7,7.7,NaN, NaN,18.1,354.7,320.2,1114560642,1114560642,1,0.5,000642,000642,262.8,34.257092,-119.324768,0.21,NaN,NaN,15.969, NaN,NaN,NaN, NaN, NaN
20050427,001111,1069704,34.257093,-119.324965,4.5,15.998,33.261,41.947,1106.01,0.0,6.881,15.344,15.315, NaN,24.410,   NaN,13.90,1013.08,93.59,14.21,11.8,13.0,7.5,7.8,274.7,276.1,7.4,7.8,NaN, NaN,18.1,354.7,221.0,1114560672,1114560672,1,0.7,000672,000672,256.5,34.257052,-119.324813,0.29,NaN,NaN,16.002, NaN,NaN,NaN, NaN, NaN
20050427,001141,1069734,34.257012,-119.325035,4.5,16.041,33.203,41.922,1095.70,0.0,6.767,15.352,15.324, NaN,24.357,   NaN,13.89,1013.05,93.56,14.22,17.3,19.9,7.5,8.1,275.2,277.8,7.4,8.0,NaN, NaN,18.0,196.5,211.8,1114560702,1114560702,1,1.1,000702,000702,261.7,34.256955,-119.324890,0.63,NaN,NaN,16.045, NaN,NaN,NaN, NaN, NaN
20050427,001211,1069764,34.256930,-119.325147,4.4,16.081,33.130,41.876,1083.55,0.0,7.164,15.359,15.332, NaN,24.291,   NaN,13.80,1013.05,93.24,14.16,14.2,17.2,7.6,8.1,278.0,281.0,7.5,8.0,NaN, NaN,18.0,218.4,232.5,1114560732,1114560732,1,1.0,000732,000732,273.3,34.256857,-119.325003,0.68,NaN,NaN,16.085, NaN,NaN,NaN, NaN, NaN
20050427,001241,1069794,34.256870,-119.325277,4.4,16.117,33.063,41.835,1113.62,0.0,6.711,15.363,15.333, NaN,24.232,   NaN,13.85,1013.04,93.53,14.14,6.7,10.2,7.9,8.1,281.5,285.1,7.7,7.9,NaN, NaN,18.3,224.0,242.1,1114560762,1114560762,1,1.1,000762,000762,280.5,34.256780,-119.325135,0.74,NaN,NaN,16.121, NaN,NaN,NaN, NaN, NaN
20050427,001312,1069825,34.256838,-119.325397,4.5,16.133,33.012,41.793,1154.65,0.0,6.900,15.365,15.334, NaN,24.189,   NaN,13.87,1013.00,93.35,14.14,1.3,5.6,7.9,8.1,282.3,286.7,7.7,7.9,NaN, NaN,18.4,230.6,279.4,1114560793,1114560793,1,0.6,000793,000793,276.6,34.256757,-119.325243,0.63,NaN,NaN,16.137, NaN,NaN,NaN, NaN, NaN
20050427,001341,1069854,34.256798,-119.325495,4.5,16.144,32.980,41.766,1198.54,0.0,6.900,15.369,15.336, NaN,24.162,   NaN,13.93,1012.96,93.43,14.19,4.4,7.8,7.8,8.1,282.8,286.2,7.6,7.9,NaN, NaN,18.8,230.6,284.0,1114560822,1114560822,1,0.3,000822,000822,265.8,34.256740,-119.325332,0.62,NaN,NaN,16.148, NaN,NaN,NaN, NaN, NaN
20050427,001412,1069885,34.256723,-119.325602,4.5,16.150,32.951,41.739,1165.69,0.0,7.145,15.368,15.336, NaN,24.138,   NaN,13.90,1012.90,93.07,14.20,16.0,18.6,7.7,8.2,285.4,287.9,7.4,8.0,NaN, NaN,18.8,221.1,238.3,1114560852,1114560852,1,1.0,000852,000852,257.6,34.256690,-119.325443,0.68,NaN,NaN,16.154, NaN,NaN,NaN, NaN, NaN
20050427,001441,1069914,34.256618,-119.325695,4.4,16.155,32.943,41.735,1133.69,0.0,7.466,15.365,15.332, NaN,24.131,   NaN,13.90,1012.82,93.23,14.17,27.9,30.4,7.6,8.1,289.0,291.4,7.4,7.9,NaN, NaN,18.9,211.0,228.7,1114560882,1114560882,1,0.8,000882,000882,251.0,34.256600,-119.325538,0.76,NaN,NaN,16.159, NaN,NaN,NaN, NaN, NaN
20050427,001511,1069944,34.256483,-119.325798,4.4,16.157,32.928,41.720,1122.41,0.0,7.371,15.363,15.330, NaN,24.119,   NaN,13.99,1012.76,93.36,14.26,33.7,36.5,7.3,7.4,291.1,293.9,7.2,7.3,NaN, NaN,18.7,215.5,214.2,1114560912,1114560912,1,1.4,000912,000912,254.8,34.256442,-119.325647,0.88,NaN,NaN,16.161, NaN,NaN,NaN, NaN, NaN
20050427,001541,1069974,34.256323,-119.325925,4.5,16.157,32.925,41.716,1115.10,0.0,7.806,15.357,15.327, NaN,24.116,   NaN,13.94,1012.78,93.06,14.24,31.5,34.2,7.3,7.5,291.9,294.5,7.2,7.4,NaN, NaN,17.0,212.0,212.9,1114560942,1114560942,1,1.0,000942,000942,266.1,34.256287,-119.325763,0.81,NaN,NaN,16.161, NaN,NaN,NaN, NaN, NaN
20050427,001611,1070004,34.256233,-119.325985,4.5,16.158,32.920,41.712,1182.09,0.0,7.730,15.350,15.319, NaN,24.112,   NaN,13.95,1012.73,93.20,14.27,27.7,29.5,7.6,7.9,296.1,297.7,7.5,7.8,NaN, NaN,16.9,208.4,207.2,1114560972,1114560972,1,0.9,000972,000972,271.3,34.256173,-119.325832,0.36,NaN,NaN,16.162, NaN,NaN,NaN, NaN, NaN
20050427,001642,1070035,34.256142,-119.326040,4.4,16.155,32.928,41.718,1217.46,0.0,7.560,15.342,15.311, NaN,24.119,   NaN,13.91,1012.67,92.90,14.26,25.5,27.5,7.8,8.2,299.2,301.1,7.7,8.2,NaN, NaN,17.3,208.4,207.4,1114561002,1114561002,1,0.8,001002,001002,272.6,34.256083,-119.325882,0.30,NaN,NaN,16.159, NaN,NaN,NaN, NaN, NaN
20050427,001712,1070066,34.256048,-119.326087,4.4,16.153,32.922,41.710,1152.19,0.0,7.485,15.333,15.302, NaN,24.115,   NaN,13.84,1012.66,92.91,14.19,23.5,25.7,7.9,8.6,298.7,300.6,7.9,8.6,NaN, NaN,17.4,208.4,204.7,1114561033,1114561033,1,0.6,001033,001033,272.3,34.255995,-119.325928,0.21,NaN,NaN,16.157, NaN,NaN,NaN, NaN, NaN
20050427,001741,1070094,34.255963,-119.326127,4.3,16.151,32.924,41.710,1133.81,0.0,7.560,15.325,15.293, NaN,24.117,   NaN,13.83,1012.65,92.98,14.16,23.8,26.0,7.9,8.6,298.4,300.5,7.9,8.6,NaN, NaN,17.8,208.4,208.0,1114561062,1114561062,1,0.7,001062,001062,270.0,34.255908,-119.325965,0.21,NaN,NaN,16.155, NaN,NaN,NaN, NaN, NaN
20050427,001811,1070124,34.255870,-119.326158,4.4,16.139,32.936,41.712,1126.42,0.0,7.749,15.317,15.284, NaN,24.129,   NaN,13.90,1012.64,93.18,14.22,27.2,28.2,7.4,8.1,299.9,300.7,7.4,8.1,NaN, NaN,17.7,208.4,180.6,1114561092,1114561092,1,0.5,001092,001092,266.6,34.255828,-119.325990,0.23,NaN,NaN,16.143, NaN,NaN,NaN, NaN, NaN
20050427,001842,1070155,34.255768,-119.326187,4.4,16.129,32.945,41.713,1155.47,0.0,7.579,15.314,15.278, NaN,24.139,   NaN,13.94,1012.64,93.06,14.28,29.9,30.8,7.3,7.9,299.6,300.3,7.3,7.9,NaN, NaN,17.5,208.4,216.3,1114561123,1114561123,1,0.6,001123,001123,263.3,34.255735,-119.326027,0.25,NaN,NaN,16.133, NaN,NaN,NaN, NaN, NaN
20050427,001912,1070185,34.255658,-119.326212,4.4,16.127,32.947,41.714,1204.31,0.0,7.806,15.309,15.274, NaN,24.141,   NaN,13.80,1012.64,92.67,14.16,29.6,30.8,7.6,8.1,296.2,297.2,7.7,8.1,NaN, NaN,17.6,193.7,176.5,1114561153,1114561153,1,0.3,001153,001153,261.0,34.255623,-119.326055,0.24,NaN,NaN,16.131, NaN,NaN,NaN, NaN, NaN
20050427,001941,1070214,34.255547,-119.326225,4.5,16.113,32.959,41.713,1254.52,0.0,7.692,15.307,15.270, NaN,24.153,   NaN,13.79,1012.64,92.75,14.13,29.0,30.0,7.8,8.3,293.3,294.1,7.8,8.4,NaN, NaN,17.0,193.7,183.2,1114561182,1114561182,1,0.8,001182,001182,260.0,34.255515,-119.326067,0.20,NaN,NaN,16.117, NaN,NaN,NaN, NaN, NaN
20050427,002011,1070244,34.255425,-119.326260,4.5,16.117,32.953,41.710,1269.68,0.0,7.655,15.301,15.265, NaN,24.147,   NaN,13.81,1012.65,92.82,14.13,29.2,30.9,7.9,8.4,293.5,294.9,7.9,8.5,NaN, NaN,16.7,193.7,183.9,1114561212,1114561212,1,0.9,001212,001212,264.5,34.255368,-119.326107,0.39,NaN,NaN,16.121, NaN,NaN,NaN, NaN, NaN
20050427,002042,1070275,34.255313,-119.326318,4.5,16.102,32.963,41.708,1298.37,0.0,7.674,15.296,15.260, NaN,24.158,   NaN,13.80,1012.70,92.61,14.13,27.2,29.7,7.9,8.5,295.4,297.7,7.9,8.5,NaN, NaN,16.5,208.4,207.6,1114561243,1114561243,1,0.9,001243,001243,271.0,34.255240,-119.326165,0.36,NaN,NaN,16.106, NaN,NaN,NaN, NaN, NaN
20050427,002111,1070304,34.255222,-119.326348,4.5,16.099,32.961,41.703,1273.84,0.0,7.636,15.287,15.252, NaN,24.157,   NaN,13.81,1012.71,92.61,14.12,23.6,26.0,7.7,8.3,296.8,299.0,7.7,8.3,NaN, NaN,16.4,208.4,187.0,1114561272,1114561272,1,0.8,001272,001272,274.0,34.255145,-119.326198,0.15,NaN,NaN,16.103, NaN,NaN,NaN, NaN, NaN
20050427,002141,1070334,34.255130,-119.326357,4.4,16.098,32.959,41.699,1250.24,0.0,7.579,15.283,15.246, NaN,24.156,   NaN,13.85,1012.75,92.61,14.14,22.9,24.2,7.4,8.1,299.1,300.2,7.4,8.1,NaN, NaN,15.9,208.4,175.4,1114561302,1114561302,1,0.7,001302,001302,274.1,34.255053,-119.326205,-0.03,NaN,NaN,16.102, NaN,NaN,NaN, NaN, NaN
20050427,002212,1070365,34.255037,-119.326350,4.4,16.092,32.961,41.696,1235.05,0.0,7.598,15.275,15.238, NaN,24.159,   NaN,13.91,1012.74,92.74,14.17,24.6,25.1,7.4,8.1,301.1,301.4,7.4,8.1,NaN, NaN,16.1,208.4,180.1,1114561332,1114561332,1,0.8,001332,001332,271.8,34.254962,-119.326197,-0.09,NaN,NaN,16.096, NaN,NaN,NaN, NaN, NaN
20050427,002242,1070395,34.254940,-119.326323,4.5,16.083,32.966,41.693,1169.07,0.0,7.598,15.263,15.227, NaN,24.165,   NaN,13.93,1012.73,92.56,14.22,25.8,26.6,7.4,8.0,300.1,300.7,7.4,8.0,NaN, NaN,16.5,208.4,156.7,1114561362,1114561362,1,0.7,001362,001362,266.8,34.254873,-119.326162,-0.17,NaN,NaN,16.087, NaN,NaN,NaN, NaN, NaN
20050427,002312,1070425,34.254828,-119.326275,4.5,16.084,32.963,41.691,1120.18,0.0,7.711,15.257,15.220, NaN,24.162,   NaN,13.87,1012.71,92.49,14.21,28.0,29.3,7.3,7.8,297.6,298.7,7.3,7.7,NaN, NaN,16.1,208.4,149.8,1114561393,1114561393,1,0.7,001393,001393,259.3,34.254775,-119.326112,-0.19,NaN,NaN,16.088, NaN,NaN,NaN, NaN, NaN
20050427,002342,1070455,34.254713,-119.326215,4.5,16.072,32.971,41.689,1105.58,0.0,7.541,15.251,15.214, NaN,24.171,   NaN,13.87,1012.68,92.55,14.21,32.5,34.2,7.1,7.4,295.0,296.5,7.2,7.4,NaN, NaN,15.9,160.4,151.8,1114561423,1114561423,1,0.7,001423,001423,249.6,34.254683,-119.326055,-0.11,NaN,NaN,16.076, NaN,NaN,NaN, NaN, NaN
20050427,002412,1070485,34.254595,-119.326138,4.5,16.059,32.979,41.685,1093.65,0.0,7.371,15.243,15.211, NaN,24.180,   NaN,13.80,1012.65,92.34,14.14,38.4,41.1,7.0,7.1,291.2,293.8,7.2,7.3,NaN, NaN,16.5,154.8,144.3,1114561453,1114561453,1,0.9,001453,001453,237.6,34.254592,-119.325987,0.04,NaN,NaN,16.063, NaN,NaN,NaN, NaN, NaN
20050427,002442,1070515,34.254462,-119.326060,4.5,16.050,32.984,41.683,1153.07,0.0,7.504,15.238,15.202, NaN,24.186,   NaN,13.80,1012.65,92.49,14.14,47.0,51.4,6.8,6.2,289.0,293.4,7.2,6.6,NaN, NaN,15.7,157.2,156.7,1114561483,1114561483,1,0.9,001483,001483,228.3,34.254482,-119.325918,0.23,NaN,NaN,16.054, NaN,NaN,NaN, NaN, NaN
20050427,002512,1070545,34.254320,-119.325978,4.5,16.048,32.982,41.678,1215.08,0.0,7.353,15.232,15.197, NaN,24.185,   NaN,13.86,1012.65,92.53,14.19,55.4,61.9,6.6,5.0,287.9,295.3,7.0,5.4,NaN, NaN,15.9,152.6,162.2,1114561513,1114561513,1,0.9,001513,001513,219.9,34.254365,-119.325857,0.43,NaN,NaN,16.052, NaN,NaN,NaN, NaN, NaN
20050427,002541,1070574,34.254177,-119.325883,4.6,16.034,32.988,41.673,1227.37,0.0,7.825,15.228,15.194, NaN,24.193,   NaN,13.93,1012.66,92.67,14.24,64.6,68.3,5.9,3.5,289.6,295.4,6.3,4.0,NaN, NaN,16.3,143.2,148.9,1114561542,1114561542,1,1.1,001542,001542,212.8,34.254230,-119.325770,0.58,NaN,NaN,16.038, NaN,NaN,NaN, NaN, NaN
20050427,002612,1070605,34.254030,-119.325788,4.4,16.023,32.993,41.667,1231.74,0.0,7.485,15.224,15.188, NaN,24.199,   NaN,14.06,1012.66,92.75,14.36,72.6,72.2,5.3,2.4,290.8,295.8,5.8,2.8,NaN, NaN,16.1,153.3,165.6,1114561573,1114561573,1,1.1,001573,001573,209.1,34.254075,-119.325678,0.69,NaN,NaN,16.027, NaN,NaN,NaN, NaN, NaN
20050427,002642,1070635,34.253870,-119.325687,4.5,16.017,32.993,41.661,1246.25,0.0,7.692,15.221,15.186, NaN,24.200,   NaN,14.02,1012.68,92.55,14.34,78.9,60.4,5.3,2.1,292.5,292.0,5.8,2.4,NaN, NaN,16.2,153.0,165.9,1114561603,1114561603,1,1.0,001603,001603,206.6,34.253912,-119.325590,0.71,NaN,NaN,16.021, NaN,NaN,NaN, NaN, NaN
20050427,002712,1070665,34.253707,-119.325580,4.5,16.011,32.993,41.656,1279.37,0.0,7.787,15.218,15.183, NaN,24.202,   NaN,14.13,1012.68,92.85,14.41,82.3,30.5,5.1,1.8,294.2,306.2,5.6,1.9,NaN, NaN,16.4,155.7,155.3,1114561633,1114561633,1,1.6,001633,001633,209.6,34.253750,-119.325480,0.78,NaN,NaN,16.015, NaN,NaN,NaN, NaN, NaN
20050427,002742,1070695,34.253517,-119.325503,4.5,16.006,32.993,41.652,1301.85,0.0,7.541,15.217,15.182, NaN,24.203,   NaN,14.18,1012.64,92.84,14.48,76.4,62.3,5.2,2.2,291.8,310.9,5.7,2.4,NaN, NaN,16.0,166.0,164.6,1114561663,1114561663,1,1.8,001663,001663,218.1,34.253552,-119.325382,0.91,NaN,NaN,16.010, NaN,NaN,NaN, NaN, NaN
20050427,002812,1070725,34.253333,-119.325463,4.4,16.003,32.991,41.646,1314.88,0.0,7.617,15.212,15.176, NaN,24.202,   NaN,14.09,1012.65,92.51,14.47,67.4,73.6,5.6,3.3,291.3,301.7,6.0,3.7,NaN, NaN,16.7,159.8,172.3,1114561692,1114561692,1,1.5,001692,001692,228.7,34.253347,-119.325330,0.88,NaN,NaN,16.007, NaN,NaN,NaN, NaN, NaN
20050427,002842,1070755,34.253145,-119.325452,4.3,16.001,32.989,41.641,1318.29,0.0,7.730,15.208,15.169, NaN,24.201,   NaN,13.91,1012.63,92.28,14.33,57.6,63.8,6.1,4.7,292.4,300.2,6.5,5.1,NaN, NaN,16.2,185.1,176.5,1114561723,1114561723,1,1.4,001722,001723,241.5,34.253122,-119.325298,0.72,NaN,NaN,16.005, NaN,NaN,NaN, NaN, NaN
20050427,002912,1070785,34.252965,-119.325480,4.5,15.997,32.988,41.637,1377.66,0.0,7.674,15.199,15.161, NaN,24.201,   NaN,13.84,1012.65,92.44,14.27,45.8,51.4,6.8,6.3,291.9,297.8,7.0,6.6,NaN, NaN,15.8,184.6,183.7,1114561753,1114561753,1,1.5,001753,001753,254.3,34.252918,-119.325325,0.65,NaN,NaN,16.001, NaN,NaN,NaN, NaN, NaN
20050427,002942,1070815,34.252825,-119.325542,4.5,15.994,32.987,41.633,1418.68,0.0,7.674,15.178,15.142, NaN,24.201,   NaN,13.87,1012.68,92.63,14.26,34.4,37.2,7.2,7.4,292.7,295.4,7.3,7.5,NaN, NaN,15.5,201.8,214.8,1114561783,1114561783,1,1.5,001783,001783,267.8,34.252752,-119.325390,0.56,NaN,NaN,15.998, NaN,NaN,NaN, NaN, NaN
20050427,003012,1070845,34.252725,-119.325605,4.4,15.991,32.986,41.630,1464.80,0.0,7.825,15.155,15.117, NaN,24.201,   NaN,13.90,1012.69,92.55,14.29,19.6,21.8,7.7,7.9,289.8,291.9,7.7,8.0,NaN, NaN,16.4,206.1,188.0,1114561813,1114561813,1,0.7,001813,001813,278.5,34.252637,-119.325460,0.27,NaN,NaN,15.995, NaN,NaN,NaN, NaN, NaN
20050427,003042,1070875,34.252665,-119.325687,4.5,15.993,32.983,41.628,1509.66,0.0,7.466,15.123,15.086, NaN,24.198,   NaN,13.88,1012.68,92.44,14.27,3.7,7.1,8.2,8.4,283.5,286.9,8.1,8.3,NaN, NaN,16.3,206.1,252.4,1114561843,1114561843,1,0.8,001843,001843,283.1,34.252568,-119.325543,0.43,NaN,NaN,15.997, NaN,NaN,NaN, NaN, NaN
20050427,003112,1070905,34.252643,-119.325818,4.6,15.988,32.986,41.626,1485.33,0.0,7.296,15.095,15.056, NaN,24.201,   NaN,13.93,1012.68,92.57,14.25,358.4,1.7,8.2,8.4,282.1,285.3,8.1,8.3,NaN, NaN,16.6,236.5,260.8,1114561873,1114561873,1,0.9,001873,001873,277.5,34.252560,-119.325663,0.78,NaN,NaN,15.992, NaN,NaN,NaN, NaN, NaN
20050427,003142,1070935,34.252605,-119.326005,4.6,15.966,33.001,41.623,1483.75,0.0,7.069,15.068,15.029, NaN,24.218,   NaN,13.97,1012.74,92.57,14.30,3.6,6.3,8.2,8.3,283.5,286.2,8.0,8.0,NaN, NaN,16.2,258.7,253.7,1114561903,1114561903,1,1.3,001903,001903,269.3,34.252542,-119.325842,1.15,NaN,NaN,15.970, NaN,NaN,NaN, NaN, NaN
20050427,003212,1070965,34.252532,-119.326227,4.4,15.946,33.016,41.621,1553.03,0.0,7.051,15.049,15.010, NaN,24.234,   NaN,13.99,1012.67,92.55,14.30,10.8,13.0,8.5,8.5,283.8,286.0,8.0,8.0,NaN, NaN,16.4,255.2,254.3,1114561933,1114561933,1,1.5,001932,001933,265.0,34.252467,-119.326077,1.36,NaN,NaN,15.950, NaN,NaN,NaN, NaN, NaN
20050427,003242,1070995,34.252428,-119.326425,4.5,15.919,33.036,41.619,1559.70,0.0,7.126,15.032,14.992, NaN,24.256,   NaN,13.95,1012.69,92.35,14.29,17.3,19.6,8.6,8.7,285.3,287.7,8.1,8.2,NaN, NaN,16.6,221.9,226.1,1114561963,1114561963,1,1.3,001963,001963,260.6,34.252380,-119.326268,1.16,NaN,NaN,15.923, NaN,NaN,NaN, NaN, NaN
20050427,003312,1071025,34.252312,-119.326577,4.0,15.891,33.054,41.613,1626.78,0.0,7.164,15.018,14.979, NaN,24.276,   NaN,13.97,1012.71,92.50,14.31,23.2,25.3,8.3,8.7,288.2,290.2,7.9,8.4,NaN, NaN,16.5,232.6,227.7,1114561993,1114561993,1,1.2,001993,001993,258.6,34.252282,-119.326412,1.00,NaN,NaN,15.895, NaN,NaN,NaN, NaN, NaN
20050427,003342,1071055,34.252188,-119.326748,4.2,15.858,33.072,41.601,1672.51,0.0,7.126,15.013,14.974, NaN,24.297,   NaN,13.90,1012.69,92.21,14.30,23.2,25.5,8.0,8.8,287.7,289.7,7.6,8.4,NaN, NaN,17.2,227.8,224.5,1114562023,1114562023,1,1.7,002023,002023,265.3,34.252145,-119.326587,1.22,NaN,NaN,15.862, NaN,NaN,NaN, NaN, NaN
20050427,003412,1071085,34.252087,-119.326975,4.0,15.864,33.056,41.589,1712.30,0.0,9.089,15.013,14.974, NaN,24.283,   NaN,13.91,1012.75,92.35,14.29,18.9,21.8,8.2,8.9,287.9,290.5,7.7,8.5,NaN, NaN,16.4,247.6,245.3,1114562053,1114562053,1,1.8,002053,002053,271.3,34.252017,-119.326818,1.39,NaN,NaN,15.868, NaN,NaN,NaN, NaN, NaN
20050427,003442,1071115,34.252007,-119.327195,4.0,15.821,33.079,41.574,1706.68,0.0,8.202,15.015,14.974, NaN,24.310,   NaN,13.98,1012.79,92.47,14.32,13.6,16.6,8.4,8.8,287.6,290.6,7.8,8.3,NaN, NaN,16.7,252.1,243.6,1114562083,1114562083,1,1.1,002083,002083,273.1,34.251935,-119.327040,1.23,NaN,NaN,15.825, NaN,NaN,NaN, NaN, NaN
20050427,003512,1071145,34.251935,-119.327367,4.1,15.736,33.137,41.559,1741.36,0.0,8.542,15.016,14.977, NaN,24.374,   NaN,14.02,1012.78,92.35,14.36,11.7,15.4,8.2,8.4,287.5,291.3,7.7,7.9,NaN, NaN,16.6,239.8,239.8,1114562113,1114562113,1,1.3,002113,002113,273.5,34.251863,-119.327210,0.95,NaN,NaN,15.740, NaN,NaN,NaN, NaN, NaN
20050427,003542,1071175,34.251878,-119.327567,4.0,15.690,33.161,41.542,1736.42,0.0,8.806,15.016,14.980, NaN,24.403,   NaN,14.03,1012.81,92.33,14.35,14.0,16.4,7.9,8.3,292.9,295.3,7.5,7.9,NaN, NaN,16.4,271.9,244.4,1114562143,1114562143,1,1.5,002143,002143,284.5,34.251778,-119.327420,1.18,NaN,NaN,15.694, NaN,NaN,NaN, NaN, NaN
20050427,003612,1071205,34.251862,-119.327807,3.8,15.640,33.179,41.516,1749.87,0.0,8.240,15.015,14.978, NaN,24.428,   NaN,14.04,1012.83,92.28,14.37,8.4,11.0,8.1,8.3,293.9,296.6,7.5,7.8,NaN, NaN,16.5,275.4,265.3,1114562173,1114562173,1,1.7,002173,002173,290.5,34.251750,-119.327668,1.38,NaN,NaN,15.644, NaN,NaN,NaN, NaN, NaN